owner,sensor,date,latitude,longitude,mass_concentration_of_chlorophyll_in_sea_water,qcFlag 
LUMCON,ioos:station:LUMCON:102:1,2019-07-01T00:00:00Z,29.1870,-90.6093,18.05,11111222 
LUMCON,ioos:station:LUMCON:102:1,2019-07-01T00:15:00Z,29.1870,-90.6093,18.32,11111222 
LUMCON,ioos:station:LUMCON:102:1,2019-07-01T00:30:00Z,29.1870,-90.6093,17.82,11111222 
LUMCON,ioos:station:LUMCON:102:1,2019-07-01T00:45:00Z,29.1870,-90.6093,17.56,11111222 
LUMCON,ioos:station:LUMCON:102:1,2019-07-01T01:00:00Z,29.1870,-90.6093,19.15,11111222 
LUMCON,ioos:station:LUMCON:102:1,2019-07-01T01:15:00Z,29.1870,-90.6093,19.56,11111222 
LUMCON,ioos:station:LUMCON:102:1,2019-07-01T01:30:00Z,29.1870,-90.6093,19.57,11111222 
LUMCON,ioos:station:LUMCON:102:1,2019-07-01T01:45:00Z,29.1870,-90.6093,19.08,11111222 
LUMCON,ioos:station:LUMCON:102:1,2019-07-01T02:00:00Z,29.1870,-90.6093,18.82,11111222 
LUMCON,ioos:station:LUMCON:102:1,2019-07-01T02:15:00Z,29.1870,-90.6093,18.5,11111222 
LUMCON,ioos:station:LUMCON:102:1,2019-07-01T02:30:00Z,29.1870,-90.6093,18.36,11111222 
LUMCON,ioos:station:LUMCON:102:1,2019-07-01T02:45:00Z,29.1870,-90.6093,17.66,11111222 
LUMCON,ioos:station:LUMCON:102:1,2019-07-01T03:00:00Z,29.1870,-90.6093,17.17,11111222 
LUMCON,ioos:station:LUMCON:102:1,2019-07-01T03:15:00Z,29.1870,-90.6093,16.46,11111222 
LUMCON,ioos:station:LUMCON:102:1,2019-07-01T03:30:00Z,29.1870,-90.6093,15.68,11111222 
LUMCON,ioos:station:LUMCON:102:1,2019-07-01T03:45:00Z,29.1870,-90.6093,15.06,11111222 
LUMCON,ioos:station:LUMCON:102:1,2019-07-01T04:00:00Z,29.1870,-90.6093,14.71,11111222 
LUMCON,ioos:station:LUMCON:102:1,2019-07-01T04:15:00Z,29.1870,-90.6093,14.76,11111222 
LUMCON,ioos:station:LUMCON:102:1,2019-07-01T04:30:00Z,29.1870,-90.6093,14.78,11111222 
LUMCON,ioos:station:LUMCON:102:1,2019-07-01T04:45:00Z,29.1870,-90.6093,14.64,11111222 
LUMCON,ioos:station:LUMCON:102:1,2019-07-01T05:00:00Z,29.1870,-90.6093,15.27,11111222 
LUMCON,ioos:station:LUMCON:102:1,2019-07-01T05:15:00Z,29.1870,-90.6093,14.68,11111222 
LUMCON,ioos:station:LUMCON:102:1,2019-07-01T05:30:00Z,29.1870,-90.6093,14.87,11111222 
LUMCON,ioos:station:LUMCON:102:1,2019-07-01T05:45:00Z,29.1870,-90.6093,14.91,11111222 
LUMCON,ioos:station:LUMCON:102:1,2019-07-01T06:00:00Z,29.1870,-90.6093,14.72,11111222 
LUMCON,ioos:station:LUMCON:102:1,2019-07-01T06:15:00Z,29.1870,-90.6093,14.73,11111222 
LUMCON,ioos:station:LUMCON:102:1,2019-07-01T06:30:00Z,29.1870,-90.6093,14.71,11111222 
LUMCON,ioos:station:LUMCON:102:1,2019-07-01T06:45:00Z,29.1870,-90.6093,14.3,11111222 
LUMCON,ioos:station:LUMCON:102:1,2019-07-01T07:00:00Z,29.1870,-90.6093,13.66,11111222 
LUMCON,ioos:station:LUMCON:102:1,2019-07-01T07:15:00Z,29.1870,-90.6093,13.59,11111222 
LUMCON,ioos:station:LUMCON:102:1,2019-07-01T07:30:00Z,29.1870,-90.6093,13.11,11111222 
LUMCON,ioos:station:LUMCON:102:1,2019-07-01T07:45:00Z,29.1870,-90.6093,12.94,11111222 
LUMCON,ioos:station:LUMCON:102:1,2019-07-01T08:00:00Z,29.1870,-90.6093,13.09,11111222 
LUMCON,ioos:station:LUMCON:102:1,2019-07-01T08:15:00Z,29.1870,-90.6093,13.06,11111222 
LUMCON,ioos:station:LUMCON:102:1,2019-07-01T08:30:00Z,29.1870,-90.6093,13.26,11111222 
LUMCON,ioos:station:LUMCON:102:1,2019-07-01T08:45:00Z,29.1870,-90.6093,13.11,11111222 
LUMCON,ioos:station:LUMCON:102:1,2019-07-01T09:00:00Z,29.1870,-90.6093,14.47,11111222 
LUMCON,ioos:station:LUMCON:102:1,2019-07-01T09:15:00Z,29.1870,-90.6093,12.03,11111222 
LUMCON,ioos:station:LUMCON:102:1,2019-07-01T09:30:00Z,29.1870,-90.6093,12.46,11111222 
LUMCON,ioos:station:LUMCON:102:1,2019-07-01T09:45:00Z,29.1870,-90.6093,12.42,11111222 
LUMCON,ioos:station:LUMCON:102:1,2019-07-01T10:00:00Z,29.1870,-90.6093,13.3,11111222 
LUMCON,ioos:station:LUMCON:102:1,2019-07-01T10:15:00Z,29.1870,-90.6093,11.98,11111222 
LUMCON,ioos:station:LUMCON:102:1,2019-07-01T10:30:00Z,29.1870,-90.6093,12.34,11111222 
LUMCON,ioos:station:LUMCON:102:1,2019-07-01T10:45:00Z,29.1870,-90.6093,12.37,11111222 
LUMCON,ioos:station:LUMCON:102:1,2019-07-01T11:00:00Z,29.1870,-90.6093,12.07,11111222 
LUMCON,ioos:station:LUMCON:102:1,2019-07-01T11:15:00Z,29.1870,-90.6093,11.96,11111222 
LUMCON,ioos:station:LUMCON:102:1,2019-07-01T11:30:00Z,29.1870,-90.6093,11.83,11111222 
LUMCON,ioos:station:LUMCON:102:1,2019-07-01T11:45:00Z,29.1870,-90.6093,11.45,11111222 
LUMCON,ioos:station:LUMCON:102:1,2019-07-01T12:00:00Z,29.1870,-90.6093,11.44,11111222 
LUMCON,ioos:station:LUMCON:102:1,2019-07-01T12:15:00Z,29.1870,-90.6093,11.23,11111222 
LUMCON,ioos:station:LUMCON:102:1,2019-07-01T12:30:00Z,29.1870,-90.6093,10.99,11111222 
LUMCON,ioos:station:LUMCON:102:1,2019-07-01T12:45:00Z,29.1870,-90.6093,11.14,11111222 
LUMCON,ioos:station:LUMCON:102:1,2019-07-01T13:00:00Z,29.1870,-90.6093,11.41,11111222 
LUMCON,ioos:station:LUMCON:102:1,2019-07-01T13:15:00Z,29.1870,-90.6093,11.42,11111222 
LUMCON,ioos:station:LUMCON:102:1,2019-07-01T13:30:00Z,29.1870,-90.6093,11.41,11111222 
LUMCON,ioos:station:LUMCON:102:1,2019-07-01T13:45:00Z,29.1870,-90.6093,11.29,11111222 
LUMCON,ioos:station:LUMCON:102:1,2019-07-01T14:00:00Z,29.1870,-90.6093,11.4,11111222 
LUMCON,ioos:station:LUMCON:102:1,2019-07-01T14:15:00Z,29.1870,-90.6093,11.4,11111222 
LUMCON,ioos:station:LUMCON:102:1,2019-07-01T14:30:00Z,29.1870,-90.6093,11.62,11111222 
LUMCON,ioos:station:LUMCON:102:1,2019-07-01T14:45:00Z,29.1870,-90.6093,12.05,11111222 
LUMCON,ioos:station:LUMCON:102:1,2019-07-01T15:00:00Z,29.1870,-90.6093,12.09,11111222 
LUMCON,ioos:station:LUMCON:102:1,2019-07-01T15:15:00Z,29.1870,-90.6093,12.01,11111222 
LUMCON,ioos:station:LUMCON:102:1,2019-07-01T15:30:00Z,29.1870,-90.6093,11.74,11111222 
LUMCON,ioos:station:LUMCON:102:1,2019-07-01T15:45:00Z,29.1870,-90.6093,12.26,11111222 
LUMCON,ioos:station:LUMCON:102:1,2019-07-01T16:00:00Z,29.1870,-90.6093,12.13,11111222 
LUMCON,ioos:station:LUMCON:102:1,2019-07-01T16:15:00Z,29.1870,-90.6093,12.8,11111222 
LUMCON,ioos:station:LUMCON:102:1,2019-07-01T16:30:00Z,29.1870,-90.6093,12.84,11111222 
LUMCON,ioos:station:LUMCON:102:1,2019-07-01T16:45:00Z,29.1870,-90.6093,13.12,11111222 
LUMCON,ioos:station:LUMCON:102:1,2019-07-01T17:00:00Z,29.1870,-90.6093,13.12,11111222 
LUMCON,ioos:station:LUMCON:102:1,2019-07-01T17:15:00Z,29.1870,-90.6093,12.38,11111222 
LUMCON,ioos:station:LUMCON:102:1,2019-07-01T17:30:00Z,29.1870,-90.6093,12.5,11111222 
LUMCON,ioos:station:LUMCON:102:1,2019-07-01T17:45:00Z,29.1870,-90.6093,12.34,11111222 
LUMCON,ioos:station:LUMCON:102:1,2019-07-01T18:00:00Z,29.1870,-90.6093,11.37,11111222 
LUMCON,ioos:station:LUMCON:102:1,2019-07-01T18:15:00Z,29.1870,-90.6093,11.97,11111222 
LUMCON,ioos:station:LUMCON:102:1,2019-07-01T18:30:00Z,29.1870,-90.6093,12.18,11111222 
LUMCON,ioos:station:LUMCON:102:1,2019-07-01T18:45:00Z,29.1870,-90.6093,11.97,11111222 
LUMCON,ioos:station:LUMCON:102:1,2019-07-01T19:00:00Z,29.1870,-90.6093,12.86,11111222 
LUMCON,ioos:station:LUMCON:102:1,2019-07-01T19:15:00Z,29.1870,-90.6093,12.94,11111222 
LUMCON,ioos:station:LUMCON:102:1,2019-07-01T19:30:00Z,29.1870,-90.6093,13.32,11111222 
LUMCON,ioos:station:LUMCON:102:1,2019-07-01T19:45:00Z,29.1870,-90.6093,13.32,11111222 
LUMCON,ioos:station:LUMCON:102:1,2019-07-01T20:00:00Z,29.1870,-90.6093,13.38,11111222 
LUMCON,ioos:station:LUMCON:102:1,2019-07-01T20:15:00Z,29.1870,-90.6093,12.82,11111222 
LUMCON,ioos:station:LUMCON:102:1,2019-07-01T20:30:00Z,29.1870,-90.6093,12.79,11111222 
LUMCON,ioos:station:LUMCON:102:1,2019-07-01T20:45:00Z,29.1870,-90.6093,13.33,11111222 
LUMCON,ioos:station:LUMCON:102:1,2019-07-01T21:00:00Z,29.1870,-90.6093,12.68,11111222 
LUMCON,ioos:station:LUMCON:102:1,2019-07-01T21:15:00Z,29.1870,-90.6093,12.47,11111222 
LUMCON,ioos:station:LUMCON:102:1,2019-07-01T21:30:00Z,29.1870,-90.6093,12.45,11111222 
LUMCON,ioos:station:LUMCON:102:1,2019-07-01T21:45:00Z,29.1870,-90.6093,12.5,11111222 
LUMCON,ioos:station:LUMCON:102:1,2019-07-01T22:00:00Z,29.1870,-90.6093,12.89,11111222 
LUMCON,ioos:station:LUMCON:102:1,2019-07-01T22:15:00Z,29.1870,-90.6093,13.16,11111222 
LUMCON,ioos:station:LUMCON:102:1,2019-07-01T22:30:00Z,29.1870,-90.6093,13.67,11111222 
LUMCON,ioos:station:LUMCON:102:1,2019-07-01T22:45:00Z,29.1870,-90.6093,13.65,11111222 
LUMCON,ioos:station:LUMCON:102:1,2019-07-01T23:00:00Z,29.1870,-90.6093,13.77,11111222 
LUMCON,ioos:station:LUMCON:102:1,2019-07-01T23:15:00Z,29.1870,-90.6093,13.85,11111222 
LUMCON,ioos:station:LUMCON:102:1,2019-07-01T23:30:00Z,29.1870,-90.6093,13.98,11111222 
LUMCON,ioos:station:LUMCON:102:1,2019-07-01T23:45:00Z,29.1870,-90.6093,14.3,11111222 
LUMCON,ioos:station:LUMCON:102:1,2019-07-02T00:00:00Z,29.1870,-90.6093,14.1,11111222 
LUMCON,ioos:station:LUMCON:102:1,2019-07-02T00:15:00Z,29.1870,-90.6093,14.12,11111222 
LUMCON,ioos:station:LUMCON:102:1,2019-07-02T00:30:00Z,29.1870,-90.6093,14.05,11111222 
LUMCON,ioos:station:LUMCON:102:1,2019-07-02T00:45:00Z,29.1870,-90.6093,13.77,11111222 
LUMCON,ioos:station:LUMCON:102:1,2019-07-02T01:00:00Z,29.1870,-90.6093,13.78,11111222 
LUMCON,ioos:station:LUMCON:102:1,2019-07-02T01:15:00Z,29.1870,-90.6093,13.56,11111222 
LUMCON,ioos:station:LUMCON:102:1,2019-07-02T01:30:00Z,29.1870,-90.6093,14.11,11111222 
LUMCON,ioos:station:LUMCON:102:1,2019-07-02T01:45:00Z,29.1870,-90.6093,13.97,11111222 
LUMCON,ioos:station:LUMCON:102:1,2019-07-02T02:00:00Z,29.1870,-90.6093,13.98,11111222 
LUMCON,ioos:station:LUMCON:102:1,2019-07-02T02:15:00Z,29.1870,-90.6093,14.08,11111222 
LUMCON,ioos:station:LUMCON:102:1,2019-07-02T02:30:00Z,29.1870,-90.6093,13.39,11111222 
LUMCON,ioos:station:LUMCON:102:1,2019-07-02T02:45:00Z,29.1870,-90.6093,13.28,11111222 
LUMCON,ioos:station:LUMCON:102:1,2019-07-02T03:00:00Z,29.1870,-90.6093,12.89,11111222 
LUMCON,ioos:station:LUMCON:102:1,2019-07-02T03:15:00Z,29.1870,-90.6093,13.33,11111222 
LUMCON,ioos:station:LUMCON:102:1,2019-07-02T03:30:00Z,29.1870,-90.6093,11.8,11111222 
LUMCON,ioos:station:LUMCON:102:1,2019-07-02T03:45:00Z,29.1870,-90.6093,12.07,11111222 
LUMCON,ioos:station:LUMCON:102:1,2019-07-02T04:00:00Z,29.1870,-90.6093,11.99,11111222 
LUMCON,ioos:station:LUMCON:102:1,2019-07-02T04:15:00Z,29.1870,-90.6093,12.07,11111222 
LUMCON,ioos:station:LUMCON:102:1,2019-07-02T04:30:00Z,29.1870,-90.6093,12.28,11111222 
LUMCON,ioos:station:LUMCON:102:1,2019-07-02T04:45:00Z,29.1870,-90.6093,12.48,11111222 
LUMCON,ioos:station:LUMCON:102:1,2019-07-02T05:00:00Z,29.1870,-90.6093,12.27,11111222 
LUMCON,ioos:station:LUMCON:102:1,2019-07-02T05:15:00Z,29.1870,-90.6093,12.04,11111222 
LUMCON,ioos:station:LUMCON:102:1,2019-07-02T05:30:00Z,29.1870,-90.6093,12.05,11111222 
LUMCON,ioos:station:LUMCON:102:1,2019-07-02T05:45:00Z,29.1870,-90.6093,12.47,11111222 
LUMCON,ioos:station:LUMCON:102:1,2019-07-02T06:00:00Z,29.1870,-90.6093,12.65,11111222 
LUMCON,ioos:station:LUMCON:102:1,2019-07-02T06:15:00Z,29.1870,-90.6093,11.88,11111222 
LUMCON,ioos:station:LUMCON:102:1,2019-07-02T06:30:00Z,29.1870,-90.6093,11.55,11111222 
LUMCON,ioos:station:LUMCON:102:1,2019-07-02T06:45:00Z,29.1870,-90.6093,11.83,11111222 
LUMCON,ioos:station:LUMCON:102:1,2019-07-02T07:00:00Z,29.1870,-90.6093,11.63,11111222 
LUMCON,ioos:station:LUMCON:102:1,2019-07-02T07:15:00Z,29.1870,-90.6093,15.51,11111222 
LUMCON,ioos:station:LUMCON:102:1,2019-07-02T07:30:00Z,29.1870,-90.6093,11.27,11111222 
LUMCON,ioos:station:LUMCON:102:1,2019-07-02T07:45:00Z,29.1870,-90.6093,12.04,11111222 
LUMCON,ioos:station:LUMCON:102:1,2019-07-02T08:00:00Z,29.1870,-90.6093,11.55,11111222 
LUMCON,ioos:station:LUMCON:102:1,2019-07-02T08:15:00Z,29.1870,-90.6093,12.18,11111222 
LUMCON,ioos:station:LUMCON:102:1,2019-07-02T08:30:00Z,29.1870,-90.6093,11.17,11111222 
LUMCON,ioos:station:LUMCON:102:1,2019-07-02T08:45:00Z,29.1870,-90.6093,11.41,11111222 
LUMCON,ioos:station:LUMCON:102:1,2019-07-02T09:00:00Z,29.1870,-90.6093,10.86,11111222 
LUMCON,ioos:station:LUMCON:102:1,2019-07-02T09:15:00Z,29.1870,-90.6093,11.32,11111222 
LUMCON,ioos:station:LUMCON:102:1,2019-07-02T09:30:00Z,29.1870,-90.6093,10.8,11111222 
LUMCON,ioos:station:LUMCON:102:1,2019-07-02T09:45:00Z,29.1870,-90.6093,10.73,11111222 
LUMCON,ioos:station:LUMCON:102:1,2019-07-02T10:00:00Z,29.1870,-90.6093,11.14,11111222 
LUMCON,ioos:station:LUMCON:102:1,2019-07-02T10:15:00Z,29.1870,-90.6093,11.14,11111222 
LUMCON,ioos:station:LUMCON:102:1,2019-07-02T10:30:00Z,29.1870,-90.6093,11.12,11111222 
LUMCON,ioos:station:LUMCON:102:1,2019-07-02T10:45:00Z,29.1870,-90.6093,11.13,11111222 
LUMCON,ioos:station:LUMCON:102:1,2019-07-02T11:00:00Z,29.1870,-90.6093,10.45,11111222 
LUMCON,ioos:station:LUMCON:102:1,2019-07-02T11:15:00Z,29.1870,-90.6093,10.69,11111222 
LUMCON,ioos:station:LUMCON:102:1,2019-07-02T11:30:00Z,29.1870,-90.6093,10.52,11111222 
LUMCON,ioos:station:LUMCON:102:1,2019-07-02T11:45:00Z,29.1870,-90.6093,10.44,11111222 
LUMCON,ioos:station:LUMCON:102:1,2019-07-02T12:00:00Z,29.1870,-90.6093,10.32,11111222 
LUMCON,ioos:station:LUMCON:102:1,2019-07-02T12:15:00Z,29.1870,-90.6093,10.39,11111222 
LUMCON,ioos:station:LUMCON:102:1,2019-07-02T12:30:00Z,29.1870,-90.6093,10.23,11111222 
LUMCON,ioos:station:LUMCON:102:1,2019-07-02T12:45:00Z,29.1870,-90.6093,10.25,11111222 
LUMCON,ioos:station:LUMCON:102:1,2019-07-02T13:00:00Z,29.1870,-90.6093,10.52,11111222 
LUMCON,ioos:station:LUMCON:102:1,2019-07-02T13:15:00Z,29.1870,-90.6093,10.36,11111222 
LUMCON,ioos:station:LUMCON:102:1,2019-07-02T13:30:00Z,29.1870,-90.6093,10.26,11111222 
LUMCON,ioos:station:LUMCON:102:1,2019-07-02T13:45:00Z,29.1870,-90.6093,10.49,11111222 
LUMCON,ioos:station:LUMCON:102:1,2019-07-02T14:00:00Z,29.1870,-90.6093,10.12,11111222 
LUMCON,ioos:station:LUMCON:102:1,2019-07-02T14:15:00Z,29.1870,-90.6093,10.15,11111222 
LUMCON,ioos:station:LUMCON:102:1,2019-07-02T14:30:00Z,29.1870,-90.6093,10.26,11111222 
LUMCON,ioos:station:LUMCON:102:1,2019-07-02T14:45:00Z,29.1870,-90.6093,10.36,11111222 
LUMCON,ioos:station:LUMCON:102:1,2019-07-02T15:00:00Z,29.1870,-90.6093,10.42,11111222 
LUMCON,ioos:station:LUMCON:102:1,2019-07-02T15:15:00Z,29.1870,-90.6093,10.73,11111222 
LUMCON,ioos:station:LUMCON:102:1,2019-07-02T15:30:00Z,29.1870,-90.6093,10.6,11111222 
LUMCON,ioos:station:LUMCON:102:1,2019-07-02T15:45:00Z,29.1870,-90.6093,10.27,11111222 
LUMCON,ioos:station:LUMCON:102:1,2019-07-02T16:00:00Z,29.1870,-90.6093,10.3,11111222 
LUMCON,ioos:station:LUMCON:102:1,2019-07-02T16:15:00Z,29.1870,-90.6093,10.56,11111222 
LUMCON,ioos:station:LUMCON:102:1,2019-07-02T16:30:00Z,29.1870,-90.6093,10.6,11111222 
LUMCON,ioos:station:LUMCON:102:1,2019-07-02T16:45:00Z,29.1870,-90.6093,11.03,11111222 
LUMCON,ioos:station:LUMCON:102:1,2019-07-02T17:00:00Z,29.1870,-90.6093,11.18,11111222 
LUMCON,ioos:station:LUMCON:102:1,2019-07-02T17:15:00Z,29.1870,-90.6093,11.21,11111222 
LUMCON,ioos:station:LUMCON:102:1,2019-07-02T17:30:00Z,29.1870,-90.6093,11.09,11111222 
LUMCON,ioos:station:LUMCON:102:1,2019-07-02T17:45:00Z,29.1870,-90.6093,11.15,11111222 
LUMCON,ioos:station:LUMCON:102:1,2019-07-02T18:00:00Z,29.1870,-90.6093,11.26,11111222 
LUMCON,ioos:station:LUMCON:102:1,2019-07-02T18:15:00Z,29.1870,-90.6093,11.57,11111222 
LUMCON,ioos:station:LUMCON:102:1,2019-07-02T18:30:00Z,29.1870,-90.6093,11.46,11111222 
LUMCON,ioos:station:LUMCON:102:1,2019-07-02T18:45:00Z,29.1870,-90.6093,11.53,11111222 
LUMCON,ioos:station:LUMCON:102:1,2019-07-02T19:00:00Z,29.1870,-90.6093,11.93,11111222 
LUMCON,ioos:station:LUMCON:102:1,2019-07-02T19:15:00Z,29.1870,-90.6093,12.05,11111222 
LUMCON,ioos:station:LUMCON:102:1,2019-07-02T19:30:00Z,29.1870,-90.6093,12.15,11111222 
LUMCON,ioos:station:LUMCON:102:1,2019-07-02T19:45:00Z,29.1870,-90.6093,12.21,11111222 
LUMCON,ioos:station:LUMCON:102:1,2019-07-02T20:00:00Z,29.1870,-90.6093,12.49,11111222 
LUMCON,ioos:station:LUMCON:102:1,2019-07-02T20:15:00Z,29.1870,-90.6093,12.75,11111222 
LUMCON,ioos:station:LUMCON:102:1,2019-07-02T20:30:00Z,29.1870,-90.6093,12.76,11111222 
LUMCON,ioos:station:LUMCON:102:1,2019-07-02T20:45:00Z,29.1870,-90.6093,13.03,11111222 
LUMCON,ioos:station:LUMCON:102:1,2019-07-02T21:00:00Z,29.1870,-90.6093,13.17,11111222 
LUMCON,ioos:station:LUMCON:102:1,2019-07-02T21:15:00Z,29.1870,-90.6093,13.46,11111222 
LUMCON,ioos:station:LUMCON:102:1,2019-07-02T21:30:00Z,29.1870,-90.6093,13.68,11111222 
LUMCON,ioos:station:LUMCON:102:1,2019-07-02T21:45:00Z,29.1870,-90.6093,14.03,11111222 
LUMCON,ioos:station:LUMCON:102:1,2019-07-02T22:00:00Z,29.1870,-90.6093,14.04,11111222 
LUMCON,ioos:station:LUMCON:102:1,2019-07-02T22:15:00Z,29.1870,-90.6093,14.12,11111222 
LUMCON,ioos:station:LUMCON:102:1,2019-07-02T22:30:00Z,29.1870,-90.6093,14.06,11111222 
LUMCON,ioos:station:LUMCON:102:1,2019-07-02T22:45:00Z,29.1870,-90.6093,13.96,11111222 
LUMCON,ioos:station:LUMCON:102:1,2019-07-02T23:00:00Z,29.1870,-90.6093,14.25,11111222 
LUMCON,ioos:station:LUMCON:102:1,2019-07-02T23:15:00Z,29.1870,-90.6093,14.46,11111222 
LUMCON,ioos:station:LUMCON:102:1,2019-07-02T23:30:00Z,29.1870,-90.6093,14.64,11111222 
LUMCON,ioos:station:LUMCON:102:1,2019-07-02T23:45:00Z,29.1870,-90.6093,14.72,11111222 
LUMCON,ioos:station:LUMCON:102:1,2019-07-03T00:00:00Z,29.1870,-90.6093,15.0,11111222 
LUMCON,ioos:station:LUMCON:102:1,2019-07-03T00:15:00Z,29.1870,-90.6093,14.91,11111222 
LUMCON,ioos:station:LUMCON:102:1,2019-07-03T00:30:00Z,29.1870,-90.6093,14.92,11111222 
LUMCON,ioos:station:LUMCON:102:1,2019-07-03T00:45:00Z,29.1870,-90.6093,15.24,11111222 
LUMCON,ioos:station:LUMCON:102:1,2019-07-03T01:00:00Z,29.1870,-90.6093,15.35,11111222 
LUMCON,ioos:station:LUMCON:102:1,2019-07-03T01:15:00Z,29.1870,-90.6093,15.47,11111222 
LUMCON,ioos:station:LUMCON:102:1,2019-07-03T01:30:00Z,29.1870,-90.6093,15.91,11111222 
LUMCON,ioos:station:LUMCON:102:1,2019-07-03T01:45:00Z,29.1870,-90.6093,15.69,11111222 
LUMCON,ioos:station:LUMCON:102:1,2019-07-03T02:00:00Z,29.1870,-90.6093,15.45,11111222 
LUMCON,ioos:station:LUMCON:102:1,2019-07-03T02:15:00Z,29.1870,-90.6093,15.43,11111222 
LUMCON,ioos:station:LUMCON:102:1,2019-07-03T02:30:00Z,29.1870,-90.6093,15.48,11111222 
LUMCON,ioos:station:LUMCON:102:1,2019-07-03T02:45:00Z,29.1870,-90.6093,15.67,11111222 
LUMCON,ioos:station:LUMCON:102:1,2019-07-03T03:00:00Z,29.1870,-90.6093,15.75,11111222 
LUMCON,ioos:station:LUMCON:102:1,2019-07-03T03:15:00Z,29.1870,-90.6093,15.87,11111222 
LUMCON,ioos:station:LUMCON:102:1,2019-07-03T03:30:00Z,29.1870,-90.6093,15.77,11111222 
LUMCON,ioos:station:LUMCON:102:1,2019-07-03T03:45:00Z,29.1870,-90.6093,27.85,11111222 
LUMCON,ioos:station:LUMCON:102:1,2019-07-03T04:00:00Z,29.1870,-90.6093,16.07,11111222 
LUMCON,ioos:station:LUMCON:102:1,2019-07-03T04:15:00Z,29.1870,-90.6093,15.58,11111222 
LUMCON,ioos:station:LUMCON:102:1,2019-07-03T04:30:00Z,29.1870,-90.6093,15.62,11111222 
LUMCON,ioos:station:LUMCON:102:1,2019-07-03T04:45:00Z,29.1870,-90.6093,15.89,11111222 
LUMCON,ioos:station:LUMCON:102:1,2019-07-03T05:00:00Z,29.1870,-90.6093,16.27,11111222 
LUMCON,ioos:station:LUMCON:102:1,2019-07-03T05:15:00Z,29.1870,-90.6093,16.43,11111222 
LUMCON,ioos:station:LUMCON:102:1,2019-07-03T05:30:00Z,29.1870,-90.6093,16.62,11111222 
LUMCON,ioos:station:LUMCON:102:1,2019-07-03T05:45:00Z,29.1870,-90.6093,15.71,11111222 
LUMCON,ioos:station:LUMCON:102:1,2019-07-03T06:00:00Z,29.1870,-90.6093,16.05,11111222 
LUMCON,ioos:station:LUMCON:102:1,2019-07-03T06:15:00Z,29.1870,-90.6093,16.11,11111222 
LUMCON,ioos:station:LUMCON:102:1,2019-07-03T06:30:00Z,29.1870,-90.6093,15.57,11111222 
LUMCON,ioos:station:LUMCON:102:1,2019-07-03T06:45:00Z,29.1870,-90.6093,16.03,11111222 
LUMCON,ioos:station:LUMCON:102:1,2019-07-03T07:00:00Z,29.1870,-90.6093,15.66,11111222 
LUMCON,ioos:station:LUMCON:102:1,2019-07-03T07:15:00Z,29.1870,-90.6093,14.92,11111222 
LUMCON,ioos:station:LUMCON:102:1,2019-07-03T07:30:00Z,29.1870,-90.6093,14.64,11111222 
LUMCON,ioos:station:LUMCON:102:1,2019-07-03T07:45:00Z,29.1870,-90.6093,14.06,11111222 
LUMCON,ioos:station:LUMCON:102:1,2019-07-03T08:00:00Z,29.1870,-90.6093,14.91,11111222 
LUMCON,ioos:station:LUMCON:102:1,2019-07-03T08:15:00Z,29.1870,-90.6093,14.33,11111222 
LUMCON,ioos:station:LUMCON:102:1,2019-07-03T08:30:00Z,29.1870,-90.6093,14.76,11111222 
LUMCON,ioos:station:LUMCON:102:1,2019-07-03T08:45:00Z,29.1870,-90.6093,14.53,11111222 
LUMCON,ioos:station:LUMCON:102:1,2019-07-03T09:00:00Z,29.1870,-90.6093,14.64,11111222 
LUMCON,ioos:station:LUMCON:102:1,2019-07-03T09:15:00Z,29.1870,-90.6093,14.54,11111222 
LUMCON,ioos:station:LUMCON:102:1,2019-07-03T09:30:00Z,29.1870,-90.6093,14.86,11111222 
LUMCON,ioos:station:LUMCON:102:1,2019-07-03T09:45:00Z,29.1870,-90.6093,15.01,11111222 
LUMCON,ioos:station:LUMCON:102:1,2019-07-03T10:00:00Z,29.1870,-90.6093,15.2,11111222 
LUMCON,ioos:station:LUMCON:102:1,2019-07-03T10:15:00Z,29.1870,-90.6093,15.2,11111222 
LUMCON,ioos:station:LUMCON:102:1,2019-07-03T10:30:00Z,29.1870,-90.6093,15.36,11111222 
LUMCON,ioos:station:LUMCON:102:1,2019-07-03T10:45:00Z,29.1870,-90.6093,15.83,11111222 
LUMCON,ioos:station:LUMCON:102:1,2019-07-03T11:00:00Z,29.1870,-90.6093,15.9,11111222 
LUMCON,ioos:station:LUMCON:102:1,2019-07-03T11:15:00Z,29.1870,-90.6093,15.68,11111222 
LUMCON,ioos:station:LUMCON:102:1,2019-07-03T11:30:00Z,29.1870,-90.6093,16.35,11111222 
LUMCON,ioos:station:LUMCON:102:1,2019-07-03T11:45:00Z,29.1870,-90.6093,15.86,11111222 
LUMCON,ioos:station:LUMCON:102:1,2019-07-03T12:00:00Z,29.1870,-90.6093,16.16,11111222 
LUMCON,ioos:station:LUMCON:102:1,2019-07-03T12:15:00Z,29.1870,-90.6093,16.02,11111222 
LUMCON,ioos:station:LUMCON:102:1,2019-07-03T12:30:00Z,29.1870,-90.6093,15.91,11111222 
LUMCON,ioos:station:LUMCON:102:1,2019-07-03T12:45:00Z,29.1870,-90.6093,16.14,11111222 
LUMCON,ioos:station:LUMCON:102:1,2019-07-03T13:00:00Z,29.1870,-90.6093,16.28,11111222 
LUMCON,ioos:station:LUMCON:102:1,2019-07-03T13:15:00Z,29.1870,-90.6093,16.41,11111222 
LUMCON,ioos:station:LUMCON:102:1,2019-07-03T13:30:00Z,29.1870,-90.6093,16.06,11111222 
LUMCON,ioos:station:LUMCON:102:1,2019-07-03T13:45:00Z,29.1870,-90.6093,15.93,11111222 
LUMCON,ioos:station:LUMCON:102:1,2019-07-03T14:00:00Z,29.1870,-90.6093,15.98,11111222 
LUMCON,ioos:station:LUMCON:102:1,2019-07-03T14:15:00Z,29.1870,-90.6093,16.47,11111222 
LUMCON,ioos:station:LUMCON:102:1,2019-07-03T14:30:00Z,29.1870,-90.6093,16.44,11111222 
LUMCON,ioos:station:LUMCON:102:1,2019-07-03T14:45:00Z,29.1870,-90.6093,16.56,11111222 
LUMCON,ioos:station:LUMCON:102:1,2019-07-03T15:00:00Z,29.1870,-90.6093,16.8,11111222 
LUMCON,ioos:station:LUMCON:102:1,2019-07-03T15:15:00Z,29.1870,-90.6093,16.73,11111222 
LUMCON,ioos:station:LUMCON:102:1,2019-07-03T15:30:00Z,29.1870,-90.6093,16.96,11111222 
LUMCON,ioos:station:LUMCON:102:1,2019-07-03T15:45:00Z,29.1870,-90.6093,16.88,11111222 
LUMCON,ioos:station:LUMCON:102:1,2019-07-03T16:00:00Z,29.1870,-90.6093,16.88,11111222 
LUMCON,ioos:station:LUMCON:102:1,2019-07-03T16:15:00Z,29.1870,-90.6093,16.62,11111222 
LUMCON,ioos:station:LUMCON:102:1,2019-07-03T16:30:00Z,29.1870,-90.6093,17.06,11111222 
LUMCON,ioos:station:LUMCON:102:1,2019-07-03T16:45:00Z,29.1870,-90.6093,17.15,11111222 
LUMCON,ioos:station:LUMCON:102:1,2019-07-03T17:00:00Z,29.1870,-90.6093,17.41,11111222 
LUMCON,ioos:station:LUMCON:102:1,2019-07-03T17:15:00Z,29.1870,-90.6093,17.59,11111222 
LUMCON,ioos:station:LUMCON:102:1,2019-07-03T17:30:00Z,29.1870,-90.6093,17.8,11111222 
LUMCON,ioos:station:LUMCON:102:1,2019-07-03T17:45:00Z,29.1870,-90.6093,17.96,11111222 
LUMCON,ioos:station:LUMCON:102:1,2019-07-03T18:00:00Z,29.1870,-90.6093,18.07,11111222 
LUMCON,ioos:station:LUMCON:102:1,2019-07-03T18:15:00Z,29.1870,-90.6093,18.52,11111222 
LUMCON,ioos:station:LUMCON:102:1,2019-07-03T18:30:00Z,29.1870,-90.6093,18.69,11111222 
LUMCON,ioos:station:LUMCON:102:1,2019-07-03T18:45:00Z,29.1870,-90.6093,18.61,11111222 
LUMCON,ioos:station:LUMCON:102:1,2019-07-03T19:00:00Z,29.1870,-90.6093,18.63,11111222 
LUMCON,ioos:station:LUMCON:102:1,2019-07-03T19:15:00Z,29.1870,-90.6093,18.66,11111222 
LUMCON,ioos:station:LUMCON:102:1,2019-07-03T19:30:00Z,29.1870,-90.6093,18.97,11111222 
LUMCON,ioos:station:LUMCON:102:1,2019-07-03T19:45:00Z,29.1870,-90.6093,19.37,11111222 
LUMCON,ioos:station:LUMCON:102:1,2019-07-03T20:00:00Z,29.1870,-90.6093,19.14,11111222 
LUMCON,ioos:station:LUMCON:102:1,2019-07-03T20:15:00Z,29.1870,-90.6093,19.16,11111222 
LUMCON,ioos:station:LUMCON:102:1,2019-07-03T20:30:00Z,29.1870,-90.6093,19.54,11111222 